weather.gov     
National Weather Service

Regional Weather Roundup
NWS Homepage
This page is being discontinued on March 12, 2014.
The same data is available at this site. Please update your bookmarks.
Thank you, and we apologize for the inconvenience.
Please send an email to SR-SRH.Webmaster@noaa.gov with any concerns.


Current Version
Previous Version:    01  02  03  04  05  06  07  08  09  10  11  12  13  14  15  16  17  18  19  20  21  22  23  24  25  26  27  28  29  30  
   31  32  33  34  35  36  37  38  39  40  41  42  43  44  45  46  47  48  49  50  51  52  53  54  
[Printable]
031
ASUS44 KJAN 150210
RWRMS

MISSISSIPPI HOURLY WEATHER ROUNDUP
NATIONAL WEATHER SERVICE JACKSON MS
900 PM CDT SUN SEP 14 2014

NOTE: "FAIR: INDICATES FEW OR NO CLOUDS BELOW 12,000 FEET WITH NO
SIGNIFICANT WEATHER AND/OR OBSTRUCTIONS TO VISIBILITY.

MSZ001>002-007>008-010>013-018>021-025>028-034>036-150300-
NORTHWEST MISSISSIPPI

CITY           SKY/WX    TMP DP  RH WIND       PRES   REMARKS
CLARKSDALE     FAIR      66  63  88 CALM      30.17R
CLEVELAND      FAIR      69  63  80 N5        30.14R
GREENWOOD      CLEAR     69  66  90 N5        30.14R
GREENVILLE     PTCLDY    73  62  68 N6        30.14R
GRENADA        FAIR      68  64  88 CALM      30.15R
OLIVE BRANCH   CLEAR     64  63  94 CALM      30.18R
OXFORD         FAIR      66  63  88 CALM      30.18R
TUNICA         CLEAR     64  61  88 N5        30.17R
$$

MSZ003>006-009-014>017-022>024-029>033-037>039-150300-
NORTHEAST MISSISSIPPI

CITY           SKY/WX    TMP DP  RH WIND       PRES   REMARKS
COLUMBUS AFB   CLEAR     73  64  74 N2        30.14R
CORINTH        FAIR      64  61  88 CALM      30.17R
GOLDN TRIANGLE CLEAR     73  63  68 N5        30.14R
STARKVILLE     FAIR      73  63  68 CALM      30.14R
TUPELO         CLEAR     69  62  78 NE5       30.15R
$$

MSZ040-058-150300-
CENTRAL MISSISSIPPI

CITY           SKY/WX    TMP DP  RH WIND       PRES   REMARKS
JACKSON INTL   CLEAR     74  70  87 CALM      30.12R
JACKSON HAWKNS CLEAR     76  69  79 CALM      30.13R
MERIDIAN KEY   CLEAR     75  69  81 NW5       30.12R
MERIDIAN NAS   PTCLDY    76  68  76 N3        30.12R
RAYMOND        FAIR      72  66  83 CALM      30.12S HAZE
VICKSBURG      CLEAR     71  68  90 N3        30.11R
$$

MSZ059>079-150300-
SOUTH MISSISSIPPI

CITY           SKY/WX    TMP DP  RH WIND       PRES   REMARKS
BROOKHAVEN     FAIR      73  72  94 CALM      30.13S FOG
HATTIESBURG    CLEAR     78  73  84 CALM      30.10R
MCCOMB         CLEAR     79  70  74 N5        30.11R
NATCHEZ        CLEAR     72  70  94 CALM      30.12S
PINE BELT      CLEAR     77  70  78 N5        30.12R
$$

MSZ080>082-150300-
COASTAL MISSISSIPPI

CITY           SKY/WX    TMP DP  RH WIND       PRES   REMARKS
BAY ST LOUIS   PTCLDY    77  73  88 CALM      30.08R
BILOXI         PTCLDY    81  75  82 E3        30.08R
PASCAGOULA     PTCLDY    77  75  93 CALM      30.09R
GULFPORT       PTCLDY    83  76  79 E3        30.08R HX  91
$$




U.S. Dept. of Commerce
NOAA National Weather Service
1325 East West Highway
Silver Spring, MD 20910
E-mail: w-nws.webmaster@noaa.gov
Page last modified: May 16, 2007
NATIONAL WEATHER SERVICE: for Safety, for Work, for Fun - FOR LIFE